Year,Month,Day,Hour,Minute,Value (Times are PST for temperature in C)
2011,08,17,00,00,13.00
2011,08,17,00,01,13.00
2011,08,17,00,02,13.00
2011,08,17,00,03,13.00
2011,08,17,00,04,13.00
2011,08,17,00,05,12.90
2011,08,17,00,06,12.90
2011,08,17,00,07,12.90
2011,08,17,00,08,12.90
2011,08,17,00,09,12.90
2011,08,17,00,10,12.80
2011,08,17,00,11,12.80
2011,08,17,00,12,12.80
2011,08,17,00,13,12.80
2011,08,17,00,14,12.80
2011,08,17,00,15,12.80
2011,08,17,00,16,12.80
2011,08,17,00,17,12.70
2011,08,17,00,18,12.70
2011,08,17,00,19,12.70
2011,08,17,00,20,12.70
2011,08,17,00,21,12.70
2011,08,17,00,22,12.70
2011,08,17,00,23,12.70
2011,08,17,00,24,12.60
2011,08,17,00,25,12.60
2011,08,17,00,26,12.60
2011,08,17,00,27,12.60
2011,08,17,00,28,12.60
2011,08,17,00,29,12.60
2011,08,17,00,30,12.60
2011,08,17,00,31,12.60
2011,08,17,00,32,12.60
2011,08,17,00,33,12.60
2011,08,17,00,34,12.60
2011,08,17,00,35,12.60
2011,08,17,00,36,12.60
2011,08,17,00,37,12.60
2011,08,17,00,38,12.60
2011,08,17,00,39,12.60
2011,08,17,00,40,12.60
2011,08,17,00,41,12.60
2011,08,17,00,42,12.60
2011,08,17,00,43,12.60
2011,08,17,00,44,12.60
2011,08,17,00,45,12.60
2011,08,17,00,46,12.60
2011,08,17,00,47,12.60
2011,08,17,00,48,12.60
2011,08,17,00,49,12.50
2011,08,17,00,50,12.50
2011,08,17,00,51,12.50
2011,08,17,00,52,12.50
2011,08,17,00,53,12.50
2011,08,17,00,54,12.50
2011,08,17,00,55,12.50
2011,08,17,00,56,12.50
2011,08,17,00,57,12.50
2011,08,17,00,58,12.50
2011,08,17,00,59,12.50
2011,08,17,01,00,12.40
2011,08,17,01,01,12.40
2011,08,17,01,02,12.40
2011,08,17,01,03,12.40
2011,08,17,01,04,12.40
2011,08,17,01,05,12.30
2011,08,17,01,06,12.30
2011,08,17,01,07,12.30
2011,08,17,01,08,12.30
2011,08,17,01,09,12.30
2011,08,17,01,10,12.30
2011,08,17,01,11,12.30
2011,08,17,01,12,12.30
2011,08,17,01,13,12.30
2011,08,17,01,14,12.30
2011,08,17,01,15,12.30
2011,08,17,01,16,12.30
2011,08,17,01,17,12.30
2011,08,17,01,18,12.30
2011,08,17,01,19,12.30
2011,08,17,01,20,12.30
2011,08,17,01,21,12.30
2011,08,17,01,22,12.30
2011,08,17,01,23,12.30
2011,08,17,01,24,12.30
2011,08,17,01,25,12.30
2011,08,17,01,26,12.30
2011,08,17,01,27,12.30
2011,08,17,01,28,12.30
2011,08,17,01,29,12.30
2011,08,17,01,30,12.30
2011,08,17,01,31,12.30
2011,08,17,01,32,12.30
2011,08,17,01,33,12.30
2011,08,17,01,34,12.30
2011,08,17,01,35,12.30
2011,08,17,01,36,12.30
2011,08,17,01,37,12.30
2011,08,17,01,38,12.30
2011,08,17,01,39,12.30
2011,08,17,01,40,12.30
2011,08,17,01,41,12.30
2011,08,17,01,42,12.30
2011,08,17,01,43,12.30
2011,08,17,01,44,12.30
2011,08,17,01,45,12.30
2011,08,17,01,46,12.30
2011,08,17,01,47,12.30
2011,08,17,01,48,12.30
2011,08,17,01,49,12.20
2011,08,17,01,50,12.20
2011,08,17,01,51,12.20
2011,08,17,01,52,12.20
2011,08,17,01,53,12.10
2011,08,17,01,54,12.10
2011,08,17,01,55,12.10
2011,08,17,01,56,12.10
2011,08,17,01,57,12.10
2011,08,17,01,58,12.00
2011,08,17,01,59,12.00
2011,08,17,02,00,12.00
2011,08,17,02,01,12.00
2011,08,17,02,02,12.00
2011,08,17,02,03,11.90
2011,08,17,02,04,11.90
2011,08,17,02,05,11.90
2011,08,17,02,06,11.90
2011,08,17,02,07,11.90
2011,08,17,02,08,11.90
2011,08,17,02,09,11.90
2011,08,17,02,10,11.80
2011,08,17,02,11,11.80
2011,08,17,02,12,11.80
2011,08,17,02,13,11.80
2011,08,17,02,14,11.80
2011,08,17,02,15,11.80
2011,08,17,02,16,11.80
2011,08,17,02,17,11.80
2011,08,17,02,18,11.80
2011,08,17,02,19,11.80
2011,08,17,02,20,11.80
2011,08,17,02,21,11.80
2011,08,17,02,22,11.80
2011,08,17,02,23,11.70
2011,08,17,02,24,11.70
2011,08,17,02,25,11.70
2011,08,17,02,26,11.70
2011,08,17,02,27,11.70
2011,08,17,02,28,11.60
2011,08,17,02,29,11.60
2011,08,17,02,30,11.60
2011,08,17,02,31,11.60
2011,08,17,02,32,11.60
2011,08,17,02,33,11.60
2011,08,17,02,34,11.60
2011,08,17,02,35,11.60
2011,08,17,02,36,11.60
2011,08,17,02,37,11.60
2011,08,17,02,38,11.60
2011,08,17,02,39,11.60
2011,08,17,02,40,11.60
2011,08,17,02,41,11.60
2011,08,17,02,42,11.60
2011,08,17,02,43,11.60
2011,08,17,02,44,11.60
2011,08,17,02,45,11.60
2011,08,17,02,46,11.60
2011,08,17,02,47,11.60
2011,08,17,02,48,11.60
2011,08,17,02,49,11.60
2011,08,17,02,50,11.60
2011,08,17,02,51,11.50
2011,08,17,02,52,11.40
2011,08,17,02,53,11.40
2011,08,17,02,54,11.40
2011,08,17,02,55,11.40
2011,08,17,02,56,11.40
2011,08,17,02,57,11.40
2011,08,17,02,58,11.40
2011,08,17,02,59,11.40
2011,08,17,03,00,11.40
2011,08,17,03,01,11.40
2011,08,17,03,02,11.40
2011,08,17,03,03,11.40
2011,08,17,03,04,11.40
2011,08,17,03,05,11.40
2011,08,17,03,06,11.40
2011,08,17,03,07,11.40
2011,08,17,03,08,11.40
2011,08,17,03,09,11.40
2011,08,17,03,10,11.40
2011,08,17,03,11,11.40
2011,08,17,03,12,11.40
2011,08,17,03,13,11.40
2011,08,17,03,14,11.40
2011,08,17,03,15,11.40
2011,08,17,03,16,11.40
2011,08,17,03,17,11.40
2011,08,17,03,18,11.40
2011,08,17,03,19,11.40
2011,08,17,03,20,11.40
2011,08,17,03,21,11.40
2011,08,17,03,22,11.40
2011,08,17,03,23,11.40
2011,08,17,03,24,11.40
2011,08,17,03,25,11.40
2011,08,17,03,26,11.40
2011,08,17,03,27,11.40
2011,08,17,03,28,11.40
2011,08,17,03,29,11.40
2011,08,17,03,30,11.40
2011,08,17,03,31,11.40
2011,08,17,03,32,11.30
2011,08,17,03,33,11.30
2011,08,17,03,34,11.30
2011,08,17,03,35,11.30
2011,08,17,03,36,11.30
2011,08,17,03,37,11.30
2011,08,17,03,38,11.30
2011,08,17,03,39,11.30
2011,08,17,03,40,11.30
2011,08,17,03,41,11.30
2011,08,17,03,42,11.30
2011,08,17,03,43,11.30
2011,08,17,03,44,11.30
2011,08,17,03,45,11.30
2011,08,17,03,46,11.30
2011,08,17,03,47,11.30
2011,08,17,03,48,11.30
2011,08,17,03,49,11.30
2011,08,17,03,50,11.30
2011,08,17,03,51,11.30
2011,08,17,03,52,11.30
2011,08,17,03,53,11.20
2011,08,17,03,54,11.20
2011,08,17,03,55,11.20
2011,08,17,03,56,11.20
2011,08,17,03,57,11.20
2011,08,17,03,58,11.20
2011,08,17,03,59,11.20
2011,08,17,04,00,11.10
2011,08,17,04,01,11.10
2011,08,17,04,02,11.10
2011,08,17,04,03,11.10
2011,08,17,04,04,11.10
2011,08,17,04,05,11.10
2011,08,17,04,06,11.10
2011,08,17,04,07,11.10
2011,08,17,04,08,11.10
2011,08,17,04,09,11.10
2011,08,17,04,10,11.10
2011,08,17,04,11,11.10
2011,08,17,04,12,11.10
2011,08,17,04,13,11.10
2011,08,17,04,14,11.10
2011,08,17,04,15,11.10
2011,08,17,04,16,11.10
2011,08,17,04,17,11.10
2011,08,17,04,18,11.10
2011,08,17,04,19,11.10
2011,08,17,04,20,11.10
2011,08,17,04,21,11.10
2011,08,17,04,22,11.10
2011,08,17,04,23,11.10
2011,08,17,04,24,11.10
2011,08,17,04,25,11.10
2011,08,17,04,26,11.10
2011,08,17,04,27,11.10
2011,08,17,04,28,11.10
2011,08,17,04,29,11.00
2011,08,17,04,30,10.90
2011,08,17,04,31,10.90
2011,08,17,04,32,10.90
2011,08,17,04,33,10.90
2011,08,17,04,34,10.90
2011,08,17,04,35,10.90
2011,08,17,04,36,10.90
2011,08,17,04,37,10.90
2011,08,17,04,38,10.90
2011,08,17,04,39,10.90
2011,08,17,04,40,10.90
2011,08,17,04,41,10.90
2011,08,17,04,42,10.90
2011,08,17,04,43,10.90
2011,08,17,04,44,10.90
2011,08,17,04,45,10.90
2011,08,17,04,46,10.90
2011,08,17,04,47,10.90
2011,08,17,04,48,10.90
2011,08,17,04,49,10.90
2011,08,17,04,50,10.90
2011,08,17,04,51,10.80
2011,08,17,04,52,10.80
2011,08,17,04,53,10.80
2011,08,17,04,54,10.80
2011,08,17,04,55,10.80
2011,08,17,04,56,10.80
2011,08,17,04,57,10.80
2011,08,17,04,58,10.80
2011,08,17,04,59,10.80
2011,08,17,05,00,10.70
2011,08,17,05,01,10.70
2011,08,17,05,02,10.70
2011,08,17,05,03,10.70
2011,08,17,05,04,10.70
2011,08,17,05,05,10.70
2011,08,17,05,06,10.70
2011,08,17,05,07,10.60
2011,08,17,05,08,10.60
2011,08,17,05,09,10.60
2011,08,17,05,10,10.60
2011,08,17,05,11,10.60
2011,08,17,05,12,10.60
2011,08,17,05,13,10.60
2011,08,17,05,14,10.60
2011,08,17,05,15,10.60
2011,08,17,05,16,10.60
2011,08,17,05,17,10.60
2011,08,17,05,18,10.60
2011,08,17,05,19,10.60
2011,08,17,05,20,10.60
2011,08,17,05,21,10.60
2011,08,17,05,22,10.60
2011,08,17,05,23,10.60
2011,08,17,05,24,10.60
2011,08,17,05,25,10.60
2011,08,17,05,26,10.60
2011,08,17,05,27,10.60
2011,08,17,05,28,10.60
2011,08,17,05,29,10.60
2011,08,17,05,30,10.60
2011,08,17,05,31,10.60
2011,08,17,05,32,10.60
2011,08,17,05,33,10.60
2011,08,17,05,34,10.60
2011,08,17,05,35,10.60
2011,08,17,05,36,10.60
2011,08,17,05,37,10.60
2011,08,17,05,38,10.60
2011,08,17,05,39,10.60
2011,08,17,05,40,10.60
2011,08,17,05,41,10.60
2011,08,17,05,42,10.60
2011,08,17,05,43,10.60
2011,08,17,05,44,10.60
2011,08,17,05,45,10.60
2011,08,17,05,46,10.60
2011,08,17,05,47,10.60
2011,08,17,05,48,10.60
2011,08,17,05,49,10.60
2011,08,17,05,50,10.60
2011,08,17,05,51,10.60
2011,08,17,05,52,10.60
2011,08,17,05,53,10.50
2011,08,17,05,54,10.40
2011,08,17,05,55,10.40
2011,08,17,05,56,10.40
2011,08,17,05,57,10.40
2011,08,17,05,58,10.40
2011,08,17,05,59,10.40
2011,08,17,06,00,10.40
2011,08,17,06,01,10.40
2011,08,17,06,02,10.40
2011,08,17,06,03,10.40
2011,08,17,06,04,10.40
2011,08,17,06,05,10.40
2011,08,17,06,06,10.40
2011,08,17,06,07,10.40
2011,08,17,06,08,10.40
2011,08,17,06,09,10.40
2011,08,17,06,10,10.40
2011,08,17,06,11,10.40
2011,08,17,06,12,10.40
2011,08,17,06,13,10.40
2011,08,17,06,14,10.40
2011,08,17,06,15,10.40
2011,08,17,06,16,10.40
2011,08,17,06,17,10.40
2011,08,17,06,18,10.40
2011,08,17,06,19,10.40
2011,08,17,06,20,10.40
2011,08,17,06,21,10.40
2011,08,17,06,22,10.40
2011,08,17,06,23,10.40
2011,08,17,06,24,10.40
2011,08,17,06,25,10.40
2011,08,17,06,26,10.40
2011,08,17,06,27,10.40
2011,08,17,06,28,10.40
2011,08,17,06,29,10.40
2011,08,17,06,30,10.40
2011,08,17,06,31,10.40
2011,08,17,06,32,10.40
2011,08,17,06,33,10.40
2011,08,17,06,34,10.40
2011,08,17,06,35,10.40
2011,08,17,06,36,10.40
2011,08,17,06,37,10.40
2011,08,17,06,38,10.40
2011,08,17,06,39,10.40
2011,08,17,06,40,10.40
2011,08,17,06,41,10.40
2011,08,17,06,42,10.40
2011,08,17,06,43,10.40
2011,08,17,06,44,10.40
2011,08,17,06,45,10.60
2011,08,17,06,46,10.60
2011,08,17,06,47,10.60
2011,08,17,06,48,10.60
2011,08,17,06,49,10.60
2011,08,17,06,50,10.60
2011,08,17,06,51,10.60
2011,08,17,06,52,10.60
2011,08,17,06,53,10.60
2011,08,17,06,54,10.60
2011,08,17,06,55,10.60
2011,08,17,06,56,10.60
2011,08,17,06,57,10.60
2011,08,17,06,58,10.60
2011,08,17,06,59,10.60
2011,08,17,07,00,10.60
2011,08,17,07,01,10.60
2011,08,17,07,02,10.60
2011,08,17,07,03,10.60
2011,08,17,07,04,10.60
2011,08,17,07,05,10.60
2011,08,17,07,06,10.60
2011,08,17,07,07,10.70
2011,08,17,07,08,10.70
2011,08,17,07,09,10.70
2011,08,17,07,10,10.80
2011,08,17,07,11,10.80
2011,08,17,07,12,10.80
2011,08,17,07,13,10.90
2011,08,17,07,14,10.90
2011,08,17,07,15,10.90
2011,08,17,07,16,10.90
2011,08,17,07,17,10.90
2011,08,17,07,18,10.90
2011,08,17,07,19,10.90
2011,08,17,07,20,11.10
2011,08,17,07,21,11.10
2011,08,17,07,22,11.10
2011,08,17,07,23,11.10
2011,08,17,07,24,11.10
2011,08,17,07,25,11.10
2011,08,17,07,26,11.20
2011,08,17,07,27,11.20
2011,08,17,07,28,11.30
2011,08,17,07,29,11.40
2011,08,17,07,30,11.40
2011,08,17,07,31,11.50
2011,08,17,07,32,11.60
2011,08,17,07,33,11.70
2011,08,17,07,34,11.80
2011,08,17,07,35,11.80
2011,08,17,07,36,12.00
2011,08,17,07,37,12.00
2011,08,17,07,38,12.10
2011,08,17,07,39,12.10
2011,08,17,07,40,12.20
2011,08,17,07,41,12.20
2011,08,17,07,42,12.30
2011,08,17,07,43,12.30
2011,08,17,07,44,12.30
2011,08,17,07,45,12.40
2011,08,17,07,46,12.40
2011,08,17,07,47,12.50
2011,08,17,07,48,12.50
2011,08,17,07,49,12.50
2011,08,17,07,50,12.60
2011,08,17,07,51,12.60
2011,08,17,07,52,12.60
2011,08,17,07,53,12.70
2011,08,17,07,54,12.70
2011,08,17,07,55,12.80
2011,08,17,07,56,12.80
2011,08,17,07,57,12.90
2011,08,17,07,58,12.90
2011,08,17,07,59,13.00
2011,08,17,08,00,13.10
2011,08,17,08,01,13.10
2011,08,17,08,02,13.20
2011,08,17,08,03,13.30
2011,08,17,08,04,13.40
2011,08,17,08,05,13.50
2011,08,17,08,06,13.60
2011,08,17,08,07,13.70
2011,08,17,08,08,13.90
2011,08,17,08,09,13.90
2011,08,17,08,10,14.00
2011,08,17,08,11,14.10
2011,08,17,08,12,14.10
2011,08,17,08,13,14.10
2011,08,17,08,14,14.10
2011,08,17,08,15,14.10
2011,08,17,08,16,14.10
2011,08,17,08,17,14.00
2011,08,17,08,18,14.00
2011,08,17,08,19,13.90
2011,08,17,08,20,13.80
2011,08,17,08,21,13.70
2011,08,17,08,22,13.70
2011,08,17,08,23,13.60
2011,08,17,08,24,13.60
2011,08,17,08,25,13.60
2011,08,17,08,26,13.60
2011,08,17,08,27,13.50
2011,08,17,08,28,13.40
2011,08,17,08,29,13.40
2011,08,17,08,30,13.30
2011,08,17,08,31,13.30
2011,08,17,08,32,13.30
2011,08,17,08,33,13.20
2011,08,17,08,34,13.20
2011,08,17,08,35,13.10
2011,08,17,08,36,13.10
2011,08,17,08,37,13.10
2011,08,17,08,38,13.10
2011,08,17,08,39,13.00
2011,08,17,08,40,13.00
2011,08,17,08,41,13.00
2011,08,17,08,42,13.00
2011,08,17,08,43,13.00
2011,08,17,08,44,13.10
2011,08,17,08,45,13.10
2011,08,17,08,46,13.20
2011,08,17,08,47,13.20
2011,08,17,08,48,13.20
2011,08,17,08,49,13.30
2011,08,17,08,50,13.30
2011,08,17,08,51,13.40
2011,08,17,08,52,13.30
2011,08,17,08,53,13.40
2011,08,17,08,54,13.40
2011,08,17,08,55,13.40
2011,08,17,08,56,13.40
2011,08,17,08,57,13.40
2011,08,17,08,58,13.50
2011,08,17,08,59,13.50
2011,08,17,09,00,13.70
2011,08,17,09,01,13.70
2011,08,17,09,02,13.80
2011,08,17,09,03,13.80
2011,08,17,09,04,13.90
2011,08,17,09,05,13.90
2011,08,17,09,06,13.90
2011,08,17,09,07,14.00
2011,08,17,09,08,14.00
2011,08,17,09,09,14.10
2011,08,17,09,10,14.20
2011,08,17,09,11,14.30
2011,08,17,09,12,14.40
2011,08,17,09,13,14.50
2011,08,17,09,14,14.50
2011,08,17,09,15,14.60
2011,08,17,09,16,14.70
2011,08,17,09,17,14.90
2011,08,17,09,18,15.00
2011,08,17,09,19,15.10
2011,08,17,09,20,15.10
2011,08,17,09,21,15.20
2011,08,17,09,22,15.20
2011,08,17,09,23,15.20
2011,08,17,09,24,15.10
2011,08,17,09,25,15.10
2011,08,17,09,26,15.10
2011,08,17,09,27,15.00
2011,08,17,09,28,15.00
2011,08,17,09,29,14.90
2011,08,17,09,30,14.80
2011,08,17,09,31,14.80
2011,08,17,09,32,14.70
2011,08,17,09,33,14.60
2011,08,17,09,34,14.40
2011,08,17,09,35,14.30
2011,08,17,09,36,14.20
2011,08,17,09,37,14.20
2011,08,17,09,38,14.20
2011,08,17,09,39,14.40
2011,08,17,09,40,14.40
2011,08,17,09,41,14.30
2011,08,17,09,42,14.20
2011,08,17,09,43,14.20
2011,08,17,09,44,14.20
2011,08,17,09,45,14.20
2011,08,17,09,46,14.40
2011,08,17,09,47,14.50
2011,08,17,09,48,14.60
2011,08,17,09,49,14.70
2011,08,17,09,50,14.80
2011,08,17,09,51,15.00
2011,08,17,09,52,15.00
2011,08,17,09,53,15.00
2011,08,17,09,54,15.20
2011,08,17,09,55,15.20
2011,08,17,09,56,15.20
2011,08,17,09,57,15.20
2011,08,17,09,58,15.30
2011,08,17,09,59,15.40
2011,08,17,10,00,15.50
2011,08,17,10,01,15.60
2011,08,17,10,02,15.70
2011,08,17,10,03,15.80
2011,08,17,10,04,15.80
2011,08,17,10,05,15.80
2011,08,17,10,06,15.70
2011,08,17,10,07,15.60
2011,08,17,10,08,15.50
2011,08,17,10,09,15.40
2011,08,17,10,10,15.30
2011,08,17,10,11,15.20
2011,08,17,10,12,15.20
2011,08,17,10,13,15.30
2011,08,17,10,14,15.30
2011,08,17,10,15,15.30
2011,08,17,10,16,15.30
2011,08,17,10,17,15.30
2011,08,17,10,18,15.40
2011,08,17,10,19,15.60
2011,08,17,10,20,15.70
2011,08,17,10,21,15.80
2011,08,17,10,22,15.90
2011,08,17,10,23,16.10
2011,08,17,10,24,16.10
2011,08,17,10,25,16.20
2011,08,17,10,26,16.20
2011,08,17,10,27,16.10
2011,08,17,10,28,16.10
2011,08,17,10,29,16.10
2011,08,17,10,30,16.10
2011,08,17,10,31,16.10
2011,08,17,10,32,16.10
2011,08,17,10,33,16.10
2011,08,17,10,34,16.10
2011,08,17,10,35,16.00
2011,08,17,10,36,16.10
2011,08,17,10,37,16.20
2011,08,17,10,38,16.30
2011,08,17,10,39,16.40
2011,08,17,10,40,16.40
2011,08,17,10,41,16.60
2011,08,17,10,42,16.70
2011,08,17,10,43,16.70
2011,08,17,10,44,16.70
2011,08,17,10,45,16.80
2011,08,17,10,46,16.90
2011,08,17,10,47,16.90
2011,08,17,10,48,16.70
2011,08,17,10,49,16.70
2011,08,17,10,50,16.70
2011,08,17,10,51,16.70
2011,08,17,10,52,16.60
2011,08,17,10,53,16.50
2011,08,17,10,54,16.40
2011,08,17,10,55,16.40
2011,08,17,10,56,16.40
2011,08,17,10,57,16.30
2011,08,17,10,58,16.10
2011,08,17,10,59,16.10
2011,08,17,11,00,16.10
2011,08,17,11,01,16.10
2011,08,17,11,02,16.20
2011,08,17,11,03,16.30
2011,08,17,11,04,16.40
2011,08,17,11,05,16.40
2011,08,17,11,06,16.40
2011,08,17,11,07,16.40
2011,08,17,11,08,16.30
2011,08,17,11,09,16.40
2011,08,17,11,10,16.50
2011,08,17,11,11,16.70
2011,08,17,11,12,16.70
2011,08,17,11,13,16.60
2011,08,17,11,14,16.60
2011,08,17,11,15,16.60
2011,08,17,11,16,16.60
2011,08,17,11,17,16.50
2011,08,17,11,18,16.40
2011,08,17,11,19,16.40
2011,08,17,11,20,16.50
2011,08,17,11,21,16.60
2011,08,17,11,22,16.60
2011,08,17,11,23,16.60
2011,08,17,11,24,16.50
2011,08,17,11,25,16.30
2011,08,17,11,26,16.30
2011,08,17,11,27,16.20
2011,08,17,11,28,16.00
2011,08,17,11,29,16.10
2011,08,17,11,30,16.10
2011,08,17,11,31,16.30
2011,08,17,11,32,16.20
2011,08,17,11,33,16.20
2011,08,17,11,34,16.20
2011,08,17,11,35,16.30
2011,08,17,11,36,16.40
2011,08,17,11,37,16.40
2011,08,17,11,38,16.60
2011,08,17,11,39,16.80
2011,08,17,11,40,16.90
2011,08,17,11,41,16.90
2011,08,17,11,42,16.90
2011,08,17,11,43,16.80
2011,08,17,11,44,16.70
2011,08,17,11,45,16.70
2011,08,17,11,46,16.70
2011,08,17,11,47,16.70
2011,08,17,11,48,16.80
2011,08,17,11,49,16.90
2011,08,17,11,50,17.10
2011,08,17,11,51,17.20
2011,08,17,11,52,17.40
2011,08,17,11,53,17.60
2011,08,17,11,54,17.70
2011,08,17,11,55,17.80
2011,08,17,11,56,17.70
2011,08,17,11,57,17.70
2011,08,17,11,58,17.80
2011,08,17,11,59,17.90
2011,08,17,12,00,17.90
2011,08,17,12,01,17.90
2011,08,17,12,02,17.90
2011,08,17,12,03,17.80
2011,08,17,12,04,17.60
2011,08,17,12,05,17.40
2011,08,17,12,06,17.20
2011,08,17,12,07,17.10
2011,08,17,12,08,17.00
2011,08,17,12,09,17.00
2011,08,17,12,10,17.10
2011,08,17,12,11,17.20
2011,08,17,12,12,17.30
2011,08,17,12,13,17.40
2011,08,17,12,14,17.50
2011,08,17,12,15,17.60
2011,08,17,12,16,17.70
2011,08,17,12,17,17.80
2011,08,17,12,18,17.80
2011,08,17,12,19,17.90
2011,08,17,12,20,18.00
2011,08,17,12,21,18.20
2011,08,17,12,22,18.20
2011,08,17,12,23,18.40
2011,08,17,12,24,18.40
2011,08,17,12,25,18.40
2011,08,17,12,26,18.40
2011,08,17,12,27,18.40
2011,08,17,12,28,18.30
2011,08,17,12,29,18.30
2011,08,17,12,30,18.30
2011,08,17,12,31,18.30
2011,08,17,12,32,18.20
2011,08,17,12,33,18.20
2011,08,17,12,34,18.20
2011,08,17,12,35,18.20
2011,08,17,12,36,18.20
2011,08,17,12,37,18.10
2011,08,17,12,38,18.20
2011,08,17,12,39,18.40
2011,08,17,12,40,18.50
2011,08,17,12,41,18.50
2011,08,17,12,42,18.50
2011,08,17,12,43,18.40
2011,08,17,12,44,18.40
2011,08,17,12,45,18.50
2011,08,17,12,46,18.40
2011,08,17,12,47,18.30
2011,08,17,12,48,18.30
2011,08,17,12,49,18.30
2011,08,17,12,50,18.30
2011,08,17,12,51,18.30
2011,08,17,12,52,18.30
2011,08,17,12,53,18.40
2011,08,17,12,54,18.40
2011,08,17,12,55,18.40
2011,08,17,12,56,18.40
2011,08,17,12,57,18.30
2011,08,17,12,58,18.30
2011,08,17,12,59,18.50
2011,08,17,13,00,18.60
2011,08,17,13,01,18.80
2011,08,17,13,02,18.90
2011,08,17,13,03,19.00
2011,08,17,13,04,19.00
2011,08,17,13,05,18.80
2011,08,17,13,06,18.60
2011,08,17,13,07,18.60
2011,08,17,13,08,18.70
2011,08,17,13,09,18.70
2011,08,17,13,10,18.70
2011,08,17,13,11,18.60
2011,08,17,13,12,18.50
2011,08,17,13,13,18.40
2011,08,17,13,14,18.30
2011,08,17,13,15,18.00
2011,08,17,13,16,17.80
2011,08,17,13,17,17.70
2011,08,17,13,18,17.70
2011,08,17,13,19,17.90
2011,08,17,13,20,17.90
2011,08,17,13,21,17.90
2011,08,17,13,22,17.90
2011,08,17,13,23,17.90
2011,08,17,13,24,17.80
2011,08,17,13,25,17.70
2011,08,17,13,26,17.50
2011,08,17,13,27,17.30
2011,08,17,13,28,17.20
2011,08,17,13,29,17.30
2011,08,17,13,30,17.20
2011,08,17,13,31,17.00
2011,08,17,13,32,16.90
2011,08,17,13,33,17.00
2011,08,17,13,34,17.00
2011,08,17,13,35,17.10
2011,08,17,13,36,17.20
2011,08,17,13,37,17.30
2011,08,17,13,38,17.40
2011,08,17,13,39,17.30
2011,08,17,13,40,17.10
2011,08,17,13,41,17.00
2011,08,17,13,42,17.00
2011,08,17,13,43,16.90
2011,08,17,13,44,16.90
2011,08,17,13,45,16.80
2011,08,17,13,46,16.80
2011,08,17,13,47,16.60
2011,08,17,13,48,16.60
2011,08,17,13,49,16.60
2011,08,17,13,50,16.60
2011,08,17,13,51,16.40
2011,08,17,13,52,16.40
2011,08,17,13,53,16.20
2011,08,17,13,54,16.10
2011,08,17,13,55,16.10
2011,08,17,13,56,16.10
2011,08,17,13,57,16.10
2011,08,17,13,58,16.10
2011,08,17,13,59,16.10
2011,08,17,14,00,15.80
2011,08,17,14,01,15.80
2011,08,17,14,02,15.70
2011,08,17,14,03,15.50
2011,08,17,14,04,15.30
2011,08,17,14,05,15.20
2011,08,17,14,06,15.10
2011,08,17,14,07,15.20
2011,08,17,14,08,15.40
2011,08,17,14,09,15.50
2011,08,17,14,10,15.70
2011,08,17,14,11,15.80
2011,08,17,14,12,15.80
2011,08,17,14,13,15.80
2011,08,17,14,14,15.80
2011,08,17,14,15,15.90
2011,08,17,14,16,15.90
2011,08,17,14,17,16.00
2011,08,17,14,18,16.10
2011,08,17,14,19,16.10
2011,08,17,14,20,16.10
2011,08,17,14,21,16.20
2011,08,17,14,22,16.30
2011,08,17,14,23,16.30
2011,08,17,14,24,16.30
2011,08,17,14,25,16.40
2011,08,17,14,26,16.40
2011,08,17,14,27,16.40
2011,08,17,14,28,16.50
2011,08,17,14,29,16.60
2011,08,17,14,30,16.60
2011,08,17,14,31,16.70
2011,08,17,14,32,16.70
2011,08,17,14,33,16.80
2011,08,17,14,34,16.90
2011,08,17,14,35,16.90
2011,08,17,14,36,17.00
2011,08,17,14,37,17.10
2011,08,17,14,38,17.30
2011,08,17,14,39,17.30
2011,08,17,14,40,17.50
2011,08,17,14,41,17.60
2011,08,17,14,42,17.70
2011,08,17,14,43,17.80
2011,08,17,14,44,18.00
2011,08,17,14,45,18.10
2011,08,17,14,46,18.30
2011,08,17,14,47,18.30
2011,08,17,14,48,18.20
2011,08,17,14,49,18.20
2011,08,17,14,50,18.30
2011,08,17,14,51,18.30
2011,08,17,14,52,18.20
2011,08,17,14,53,18.40
2011,08,17,14,54,18.50
2011,08,17,14,55,18.60
2011,08,17,14,56,18.70
2011,08,17,14,57,18.80
2011,08,17,14,58,18.70
2011,08,17,14,59,18.70
2011,08,17,15,00,18.70
2011,08,17,15,01,18.60
2011,08,17,15,02,18.50
2011,08,17,15,03,18.40
2011,08,17,15,04,18.30
2011,08,17,15,05,18.30
2011,08,17,15,06,18.40
2011,08,17,15,07,18.50
2011,08,17,15,08,18.60
2011,08,17,15,09,18.70
2011,08,17,15,10,18.90
2011,08,17,15,11,18.90
2011,08,17,15,12,19.00
2011,08,17,15,13,19.10
2011,08,17,15,14,19.10
2011,08,17,15,15,19.20
2011,08,17,15,16,19.40
2011,08,17,15,17,19.60
2011,08,17,15,18,19.70
2011,08,17,15,19,19.90
2011,08,17,15,20,20.00
2011,08,17,15,21,20.10
2011,08,17,15,22,20.20
2011,08,17,15,23,20.20
2011,08,17,15,24,20.20
2011,08,17,15,25,20.30
2011,08,17,15,26,20.40
2011,08,17,15,27,20.50
2011,08,17,15,28,20.60
2011,08,17,15,29,20.70
2011,08,17,15,30,20.80
2011,08,17,15,31,20.80
2011,08,17,15,32,20.70
2011,08,17,15,33,20.50
2011,08,17,15,34,20.10
2011,08,17,15,35,19.60
2011,08,17,15,36,19.30
2011,08,17,15,37,19.00
2011,08,17,15,38,18.90
2011,08,17,15,39,18.90
2011,08,17,15,40,19.00
2011,08,17,15,41,19.10
2011,08,17,15,42,19.20
2011,08,17,15,43,19.30
2011,08,17,15,44,19.40
2011,08,17,15,45,19.60
2011,08,17,15,46,19.80
2011,08,17,15,47,20.00
2011,08,17,15,48,20.10
2011,08,17,15,49,19.90
2011,08,17,15,50,19.70
2011,08,17,15,51,19.60
2011,08,17,15,52,19.60
2011,08,17,15,53,19.70
2011,08,17,15,54,19.80
2011,08,17,15,55,19.90
2011,08,17,15,56,20.00
2011,08,17,15,57,20.20
2011,08,17,15,58,20.20
2011,08,17,15,59,20.40
2011,08,17,16,00,20.50
2011,08,17,16,01,20.60
2011,08,17,16,02,20.80
2011,08,17,16,03,20.80
2011,08,17,16,04,21.00
2011,08,17,16,05,21.00
2011,08,17,16,06,21.20
2011,08,17,16,07,21.30
2011,08,17,16,08,21.40
2011,08,17,16,09,21.50
2011,08,17,16,10,21.60
2011,08,17,16,11,21.70
2011,08,17,16,12,21.70
2011,08,17,16,13,21.70
2011,08,17,16,14,21.80
2011,08,17,16,15,21.70
2011,08,17,16,16,21.70
2011,08,17,16,17,21.80
2011,08,17,16,18,21.80
2011,08,17,16,19,21.70
2011,08,17,16,20,21.70
2011,08,17,16,21,21.60
2011,08,17,16,22,21.60
2011,08,17,16,23,21.60
2011,08,17,16,24,21.60
2011,08,17,16,25,21.60
2011,08,17,16,26,21.60
2011,08,17,16,27,21.50
2011,08,17,16,28,21.50
2011,08,17,16,29,21.60
2011,08,17,16,30,21.60
2011,08,17,16,31,21.70
2011,08,17,16,32,21.70
2011,08,17,16,33,21.70
2011,08,17,16,34,21.70
2011,08,17,16,35,21.60
2011,08,17,16,36,21.60
2011,08,17,16,37,21.60
2011,08,17,16,38,21.60
2011,08,17,16,39,21.60
2011,08,17,16,40,21.60
2011,08,17,16,41,21.70
2011,08,17,16,42,21.80
2011,08,17,16,43,21.80
2011,08,17,16,44,21.90
2011,08,17,16,45,21.90
2011,08,17,16,46,22.00
2011,08,17,16,47,22.20
2011,08,17,16,48,22.20
2011,08,17,16,49,22.20
2011,08,17,16,50,22.10
2011,08,17,16,51,22.00
2011,08,17,16,52,21.90
2011,08,17,16,53,21.90
2011,08,17,16,54,21.80
2011,08,17,16,55,21.70
2011,08,17,16,56,21.70
2011,08,17,16,57,21.70
2011,08,17,16,58,21.70
2011,08,17,16,59,21.70
2011,08,17,17,00,21.70
2011,08,17,17,01,21.70
2011,08,17,17,02,21.70
2011,08,17,17,03,21.60
2011,08,17,17,04,21.50
2011,08,17,17,05,21.40
2011,08,17,17,06,21.40
2011,08,17,17,07,21.30
2011,08,17,17,08,21.30
2011,08,17,17,09,21.30
2011,08,17,17,10,21.20
2011,08,17,17,11,21.30
2011,08,17,17,12,21.30
2011,08,17,17,13,21.40
2011,08,17,17,14,21.50
2011,08,17,17,15,21.60
2011,08,17,17,16,21.50
2011,08,17,17,17,21.40
2011,08,17,17,18,21.30
2011,08,17,17,19,21.00